Weather History for Fosston, MN

Change the Weather History Date:

Thursday, December 22, 2011

  Actual Average Record
Temperature  
Mean Temperature 18 °F -  
Max Temperature 24 °F 18 °F 59 °F (2003)
Min Temperature 12 °F 0 °F -30 °F (1983)
Degree Days  
Heating Degree Days 47    
Moisture  
Dew Point 13 °F    
Average Humidity 79    
Maximum Humidity 93    
Minimum Humidity 68    
Precipitation  
Precipitation 0.00 in - - ()
Sea Level Pressure  
Sea Level Pressure 30.17 in    
Wind  
Wind Speed 2 mph (SSW)    
Max Wind Speed 14 mph    
Max Gust Speed -    
Visibility 10 miles    
Events Snow    
Averages and records for this station are not official NWS values.
T = Trace of Precipitation, MM = Missing Value Source: NWS Daily Summary

Daily Weather History Graph

Daily Weather History Graph

Search for Another Location

Airport:

Trip Planner

Search our weather history database for the weather conditions in past years. The results will help you decide how hot, cold, wet, or windy it might be!

Date:

Astronomy

Dec. 22, 2011 Rise Set
Actual Time 8:08 AM CST 4:34 PM CST
Civil Twilight 7:32 AM CST 5:10 PM CST
Nautical Twilight 6:53 AM CST 5:49 PM CST
Astronomical Twilight 6:15 AM CST 6:27 PM CST
Moon 5:52 AM CST (12/22) 2:45 PM CST (12/22)
Length of Visible Light 9h 37m
Length of Day
8h 25m
Waning Crescent, 5% of the Moon is Illuminated
Dec 22
Waning Crescent
Dec 24
New
Jan 1
First Quarter
Jan 9
Full
Jan 16
Last Quarter

Hourly Weather History & Observations

Time (CST) Temp. Windchill Dew Point Humidity Pressure Visibility Wind Dir Wind Speed Gust Speed Precip Events Conditions
12:15 AM 17.6 °F - 10.4 °F 73% 30.12 in 10.0 mi Calm Calm - N/A   Overcast
12:35 AM 17.6 °F - 10.4 °F 73% 30.13 in 10.0 mi Calm Calm - N/A   Overcast
12:55 AM 17.6 °F - 10.4 °F 73% 30.14 in 10.0 mi Calm Calm - N/A   Overcast
1:15 AM 17.6 °F - 10.4 °F 73% 30.15 in 10.0 mi Calm Calm - N/A   Overcast
1:35 AM 17.6 °F - 10.4 °F 73% 30.16 in 10.0 mi Calm Calm - N/A   Overcast
1:55 AM 17.6 °F - 10.4 °F 73% 30.16 in 10.0 mi Calm Calm - N/A   Overcast
2:15 AM 17.6 °F - 10.4 °F 73% 30.18 in 10.0 mi Calm Calm - N/A   Overcast
2:35 AM 17.6 °F - 10.4 °F 73% 30.19 in 10.0 mi Calm Calm - N/A   Overcast
2:55 AM 17.6 °F - 10.4 °F 73% 30.20 in 10.0 mi Calm Calm - N/A   Overcast
3:15 AM 17.6 °F - 10.4 °F 73% 30.20 in 10.0 mi Calm Calm - N/A   Overcast
3:35 AM 17.6 °F - 12.2 °F 79% 30.20 in 10.0 mi Calm Calm - N/A   Overcast
3:55 AM 17.6 °F - 12.2 °F 79% 30.20 in 10.0 mi Calm Calm - N/A   Overcast
4:15 AM 17.6 °F - 12.2 °F 79% 30.21 in 10.0 mi Calm Calm - N/A   Overcast
4:35 AM 17.6 °F - 12.2 °F 79% 30.20 in 10.0 mi Calm Calm - N/A   Overcast
4:55 AM 17.6 °F - 12.2 °F 79% 30.21 in 10.0 mi Calm Calm - N/A   Overcast
5:35 AM 17.6 °F - 14.0 °F 86% 30.22 in 10.0 mi Calm Calm - N/A   Overcast
5:55 AM 17.6 °F - 12.2 °F 79% 30.22 in 10.0 mi Calm Calm - N/A Snow Light Snow
6:15 AM 17.6 °F - 14.0 °F 86% 30.22 in 10.0 mi Calm Calm - N/A Snow Light Snow
6:35 AM 15.8 °F - 12.2 °F 86% 30.20 in 10.0 mi Calm Calm - N/A Snow Light Snow
7:15 AM 12.2 °F - 10.4 °F 92% 30.22 in 10.0 mi Calm Calm - N/A   Scattered Clouds
7:35 AM 14.0 °F - 12.2 °F 93% 30.24 in 10.0 mi Calm Calm - N/A   Mostly Cloudy
7:55 AM 15.8 °F - 14.0 °F 93% 30.24 in 10.0 mi Calm Calm - N/A   Overcast
8:16 AM 15.8 °F 8.6 °F 12.2 °F 86% 30.24 in 10.0 mi West 4.6 mph - N/A   Scattered Clouds
8:35 AM 14.0 °F - 10.4 °F 86% 30.24 in 10.0 mi Calm Calm - N/A   Clear
8:55 AM 14.0 °F - 10.4 °F 86% 30.24 in 10.0 mi Calm Calm - N/A   Scattered Clouds
9:15 AM 17.6 °F - 12.2 °F 79% 30.23 in 10.0 mi Calm Calm - N/A   Mostly Cloudy
10:16 AM 17.6 °F - 10.4 °F 73% 30.23 in 10.0 mi Calm Calm - N/A   Overcast
10:35 AM 19.4 °F 14.3 °F 12.2 °F 74% 30.24 in 10.0 mi SW 3.5 mph - N/A   Overcast
10:55 AM 19.4 °F 7.9 °F 12.2 °F 74% 30.23 in 10.0 mi WSW 10.4 mph - N/A   Overcast
11:12 AM 19.4 °F 7.9 °F 12.2 °F 74% 30.22 in 10.0 mi SW 10.4 mph - N/A   Overcast
11:27 AM 19.4 °F 7.9 °F 12.2 °F 74% 30.22 in 10.0 mi SSW 10.4 mph - N/A   Overcast
11:55 AM 21.2 °F 10.1 °F 15.8 °F 80% 30.22 in 10.0 mi SW 10.4 mph - N/A   Overcast
12:15 PM 21.2 °F 9.5 °F 15.8 °F 80% 30.22 in 10.0 mi SSW 11.5 mph - N/A   Overcast
12:30 PM 21.2 °F 12.6 °F 15.8 °F 80% 30.22 in 10.0 mi SW 6.9 mph - N/A   Overcast
12:51 PM 21.2 °F 10.9 °F 15.8 °F 80% 30.21 in 10.0 mi SW 9.2 mph - N/A   Overcast
1:12 PM 23.0 °F 13.1 °F 14.0 °F 68% 30.20 in 10.0 mi SW 9.2 mph - N/A   Overcast
1:35 PM 23.0 °F 11.1 °F 14.0 °F 68% 30.20 in 10.0 mi SW 12.7 mph - N/A   Overcast
1:55 PM 21.2 °F 9.5 °F 14.0 °F 74% 30.20 in 10.0 mi WSW 11.5 mph - N/A   Overcast
2:15 PM 21.2 °F 10.1 °F 14.0 °F 74% 30.20 in 10.0 mi SW 10.4 mph - N/A   Overcast
2:35 PM 23.0 °F 13.9 °F 15.8 °F 74% 30.20 in 10.0 mi SW 8.1 mph - N/A   Overcast
3:35 PM 23.0 °F - 15.8 °F 74% 30.18 in 10.0 mi Calm Calm - N/A   Overcast
3:52 PM 23.0 °F 13.1 °F 15.8 °F 74% 30.18 in 10.0 mi SSW 9.2 mph - N/A   Overcast
4:15 PM 23.0 °F - 15.8 °F 74% 30.18 in 10.0 mi Calm Calm - N/A   Overcast
4:32 PM 24.8 °F 20.5 °F 15.8 °F 69% 30.18 in 10.0 mi SSW 3.5 mph - N/A   Overcast
4:55 PM 23.0 °F - 15.8 °F 74% 30.18 in 10.0 mi Calm Calm - N/A   Overcast
5:15 PM 23.0 °F - 15.8 °F 74% 30.18 in 10.0 mi Calm Calm - N/A   Overcast
5:27 PM 21.2 °F - 14.0 °F 74% 30.18 in 10.0 mi Calm Calm - N/A   Mostly Cloudy
5:52 PM 21.2 °F - 14.0 °F 74% 30.18 in 10.0 mi Calm Calm - N/A   Mostly Cloudy
6:34 PM 19.4 °F 12.8 °F 12.2 °F 74% 30.16 in 10.0 mi SSE 4.6 mph - N/A   Scattered Clouds
6:55 PM 17.6 °F - 10.4 °F 73% 30.16 in 10.0 mi Calm Calm - N/A   Clear
7:14 PM 15.8 °F 8.6 °F 10.4 °F 79% 30.15 in 10.0 mi South 4.6 mph - N/A   Clear
7:35 PM 14.0 °F - 10.4 °F 86% 30.14 in 10.0 mi Calm Calm - N/A   Clear
7:55 PM 14.0 °F 6.5 °F 10.4 °F 86% 30.13 in 10.0 mi South 4.6 mph - N/A   Clear
8:16 PM 12.2 °F - 10.4 °F 92% 30.11 in 10.0 mi Calm Calm - N/A   Clear
8:34 PM 12.2 °F - 10.4 °F 92% 30.10 in 10.0 mi Calm Calm - N/A   Clear
8:51 PM 12.2 °F - 10.4 °F 92% 30.10 in 10.0 mi Calm Calm - N/A   Clear
9:15 PM 12.2 °F - 10.4 °F 92% 30.09 in 10.0 mi Calm Calm - N/A   Clear
9:34 PM 15.8 °F 4.2 °F 12.2 °F 86% 30.08 in 10.0 mi South 9.2 mph - N/A   Clear
9:56 PM 17.6 °F - 12.2 °F 79% 30.07 in 10.0 mi Calm Calm - N/A   Clear
10:13 PM 17.6 °F - 12.2 °F 79% 30.06 in 10.0 mi Calm Calm - N/A   Clear
10:36 PM 17.6 °F 6.4 °F 12.2 °F 79% 30.05 in 10.0 mi South 9.2 mph - N/A   Clear
10:55 PM 17.6 °F 5.7 °F 14.0 °F 86% 30.04 in 10.0 mi South 10.4 mph - N/A   Clear
11:15 PM 19.4 °F 6.0 °F 15.8 °F 86% 30.03 in 10.0 mi SSW 13.8 mph - N/A   Clear
11:35 PM 19.4 °F 6.0 °F 14.0 °F 80% 30.03 in 10.0 mi South 13.8 mph - N/A   Mostly Cloudy